{"data":{"norad_id":45455,"intl_designator":"2020-020AH","name":"ONEWEB-0060","alt_names":[],"object_type":"PAYLOAD","status":"ACTIVE","operator":null,"country":"UK","launch_date":"2020-03-21","launch_site_code":"TYMSC","launch_vehicle":null,"mission":null,"orbit_class":"UNKNOWN","rcs_meters":null,"size_class":null,"mass_kg":null,"dimensions":null,"purposes":["comms"],"wikipedia_slug":null,"has_3d_model":false,"image_url":null,"decayed_at":null,"tle_current":{"epoch":"2026-09-20T02:04:03.550944Z","epoch_age_seconds":50127,"freshness":"FRESH","line1":"1 45455U 20020AH  26263.08615221 -.00000336  00000+0 -98462-3 0  9996","line2":"2 45455  87.8969   2.2026 0002583  85.7523 274.3900 13.11419025314989","mean_motion":13.11419025,"eccentricity":0.0002583,"inclination_deg":87.8969,"raan_deg":2.2026,"arg_perigee_deg":85.7523,"mean_anomaly_deg":274.39,"bstar":-0.00098462,"rev_number":31498,"period_min":109.8047208824,"perigee_km":1215.7126685594,"apogee_km":1219.6366648665,"semimajor_km":7595.8116667129,"source":"CELESTRAK","updated_at":"2026-09-20T09:00:44.558826Z"}}}